Regional Weather Roundup
Issued by NWS

Home | Current Version | Previous Version | Graphics & Text | Print | Product List | Glossary On
Versions: 1 2 3 4 5 6 7 8 9 10 11 12 13 14 15 16 17 18 19 20 21 22 23 24 25 26 27 28 29 30 31 32 33 34 35 36 37 38 39 40 41 42 43 44 45 46 47 48 49 50
000
ASUS43 KMPX 201210
RWRMN
WEATHER ROUNDUP FOR MINNESOTA
NATIONAL WEATHER SERVICE TWIN CITIES/CHANHASSEN MN
700 AM CDT WED AUG 20 2014


NOTE: "FAIR" INDICATES FEW OR NO CLOUDS BELOW 12,000 FEET WITH NO
SIGNIFICANT WEATHER AND/OR OBSTRUCTIONS TO VISIBILITY. N/A MEANS
CURRENT SKY AND/OR WEATHER CONDITIONS ARE NOT AVAILABLE.

MNZ060>063-068>070-201300-
   Twin Cities Metro

CITY           SKY/WX    TMP DP  RH WIND       PRES   REMARKS
TWIN CITIES    PTCLDY    66  64  93 E5        29.83R
6HR MIN TEMP:  65; 6HR MAX TEMP:  70;

ST PAUL        CLEAR     65  63  93 E8        29.83R
CRYSTAL        CLEAR     65  62  90 E3        29.82R
BLAINE         CLEAR     63  63 100 E3        29.83S
LAKEVILLE      LGT RAIN  61  61 100 CALM      29.84R VSB<1/4
EDEN PRAIRIE   CLEAR     66  65  96 E3        29.82R FOG
6HR MIN TEMP:  64; 6HR MAX TEMP:  68; 6HR PCP:  0.01;

SOUTH ST PAUL  CLEAR     65  63  91 CALM      29.82S
LAKE ELMO      FAIR      63  63 100 NE3       29.84S
$$
MNZ001>005-007-008-013>017-022>024-027-028-201300-
   Northwest Minnesota

CITY           SKY/WX    TMP DP  RH WIND       PRES   REMARKS
BEMIDJI        CLEAR     59  58  99 E3        29.85S
HALLOCK        PTCLDY    64  61  88 SE8       29.78S
ROSEAU         CLEAR     63  57  82 SE5       29.84R
WARROAD        CLEAR     61  57  88 SE3       29.85R
THIEF RVR FALL CLEAR     61  57  88 SE6       29.82R
CROOKSTON      CLEAR     63  61  94 SE7       29.79S
FOSSTON        CLEAR     57  55  94 CALM      29.83R
DETROIT LAKES  PTCLDY    63  63 100 SE5       29.84R
MOORHEAD       CLEAR     64  64 100 SE3       29.80R
PARK RAPIDS    FOG       61  61 100 E6        29.84R VSB 1/2
MAHNOMEN       FAIR      62  60  95 SE6       29.82R
$$
MNZ006-009>011-018-025>026-201300-
   North Central Minnesota

CITY           SKY/WX    TMP DP  RH WIND       PRES   REMARKS
BAUDETTE       CLOUDY    59  57  93 CALM      29.86R
FLAG ISLAND    CLEAR     66  63  88 SE7       29.84R
INTL FALLS     CLOUDY    54  54 100 CALM      29.88R FOG
6HR MIN TEMP:  49; 6HR MAX TEMP:  54;

WASKISH        MOCLDY    59  57  94 CALM      29.86R
BIG FORK       FOG       50  48  93 CALM      29.87S VSB<1/4
LONGVILLE      FOG       55  54  94 CALM      29.85S VSB 1/2
GRAND RAPIDS   CLOUDY    55  52  88 CALM      29.87S VSB<1/4
CRANE LAKE     FOG       52  52 100 CALM      29.89R VSB 1/4
ORR            FOG       52  50  93 CALM      29.86R VSB 1/2
COOK           FOG       50  50 100 CALM      29.89R VSB<1/4
WALKER         CLOUDY    60  60  99 CALM      29.85S FOG
$$
MNZ012-019>021-037-201300-
   Northeast Minnesota

CITY           SKY/WX    TMP DP  RH WIND       PRES   REMARKS
DULUTH         CLOUDY    60  58  92 CALM      29.87S
6HR MIN TEMP:  59; 6HR MAX TEMP:  61;

ELY            CLOUDY    61  59  94 CALM      29.88R
HIBBING        CLOUDY    56  54  93 CALM      29.88S FOG
EVELETH        CLOUDY    57  57 100 CALM      29.89R
DULUTH HARBOR  CLOUDY    63  59  88 CALM      29.87R
TWO HARBORS    CLOUDY    57  54  88 CALM      29.85S
SILVER BAY     CLEAR     57  57 100 CALM      29.85R
GRAND MARAIS     N/A     63  60  90 CALM      29.83R
G MARAIS ARPRT CLOUDY    57  54  88 N6        29.87R
$$
MNZ029>031-032-039>041-046>048-054>057-064-201300-
   West Central Minnesota

CITY           SKY/WX    TMP DP  RH WIND       PRES   REMARKS
FERGUS FALLS   CLEAR     64  63  94 SE5       29.80R
WHEATON        PTCLDY    57  57 100 E6        29.81R FOG
MORRIS         PTCLDY    63  61  94 E7        29.81R FOG
ALEXANDRIA     CLEAR     63  62  97 SE6       29.85R
ELBOW LAKE     FAIR      64  62  93 SE6       29.81R
WADENA         FOG       59  59 100 E3        29.84R VSB<1/4
GLENWOOD       FOG       61  59  94 E3        29.84R VSB 1/4
APPLETON       MOCLDY    64  63  94 SE3       29.82R FOG
BENSON         MOCLDY    63  63 100 SE3       29.82R
ORTONVILLE     MOCLDY    64  61  88 SE5       29.80R FOG
MADISON        CLOUDY    64  63  94 SE3       29.82R FOG
WILLMAR        FAIR      63  59  88 CALM      29.85R FOG
$$
MNZ033>034-036-042>043-049>051-058-059-201300-
   Central Minnesota

CITY           SKY/WX    TMP DP  RH WIND       PRES   REMARKS
ST CLOUD       CLOUDY    63  62  97 E3        29.84R FOG
6HR MIN TEMP:  62; 6HR MAX TEMP:  65;

SAUK CENTRE    FAIR      61  60  98 E3        29.84R FOG
PAYNESVILLE    MOCLDY    57  57 100 CALM      29.84R FOG
AITKIN         HAZE      57  52  82 CALM      29.84S VSB 1/2
PINE RIVER     FOG       55  55 100 CALM      29.88S VSB 1/4
BRAINERD       PTCLDY    57  57 100 CALM      29.85R FOG
STAPLES        MOCLDY    59  59 100 CALM      29.84S FOG
LONG PRAIRIE   FOG       61  61 100 CALM      29.85R VSB<1/4
LITTLE FALLS   MOCLDY    61  59  94 CALM      29.84S
LITCHFIELD     MOCLDY    63  63 100 CALM      29.84R FOG
BUFFALO        CLEAR     62  60  93 CALM      29.84R
MAPLE LAKE     FOG       65  64  99 E5        29.85R VSB 1/4
$$
MNZ037-044-045-052-053-201300-
   East Central Minnesota

CITY           SKY/WX    TMP DP  RH WIND       PRES   REMARKS
PRINCETON      CLOUDY    63  63 100 E3        29.84S
MORA           CLEAR     55  54  94 CALM      29.87S
CAMBRIDGE      HAZE      63  55  77 NE5       29.83S VSB 1
RUSH CITY      CLOUDY    59  58  97 NE3       29.86R FOG
MOOSE LAKE     CLOUDY    55  55 100 CALM      29.85S FOG
HINCKLEY       CLOUDY    55  55 100 CALM      29.86R FOG
CLOQUET        CLOUDY    61  57  88 CALM      29.88R FOG
MCGREGOR       CLOUDY    54  54 100 CALM      29.88R VSB<1/4
$$
MNZ071>073-080-081-089-090-097-098-201300-
   Southwest Minnesota

CITY           SKY/WX    TMP DP  RH WIND       PRES   REMARKS
MONTEVIDEO     CLOUDY    63  63 100 S5        29.84R
GRANITE FALLS  CLOUDY    62  61  97 SE3       29.85R FOG
CANBY          CLOUDY    63  61  96 CALM      29.85R
MARSHALL       CLOUDY    64  61  88 SE3       29.83R
REDWOOD FALLS  CLOUDY    63  62  97 S5        29.84R FOG
OLIVIA         CLOUDY    63  59  88 CALM      29.83R FOG
PIPESTONE      LGT RAIN  66  63  88 S3        29.86S
WINDOM         CLOUDY    64  63  94 S3        29.86R
WORTHINGTON    CLOUDY    64   9  11 S7        29.87R
JACKSON        CLOUDY    63  61  94 S5        29.88R
TRACY          CLOUDY    68  64  86 S8        29.85R
SLAYTON        CLOUDY    64  63  96 CALM      29.88R
$$
MNZ065>067-074>077-082>085-091>093-201300-
   South Central Minnesota

CITY           SKY/WX    TMP DP  RH WIND       PRES   REMARKS
MANKATO        MOCLDY    64  61  88 E3        29.84R VSB 1
NEW ULM        CLOUDY    63  63 100 CALM      29.85R
ST JAMES       CLOUDY    63  61  94 CALM      29.85R FOG
FAIRMONT       CLOUDY    63  41  45 CALM      29.85R
GLENCOE        FOG       62  60  91 CALM      29.83R VSB<1/4
FARIBAULT      PTCLDY    61  55  82 CALM      29.85R HAZE
OWATONNA       PTCLDY    61  59  94 CALM      29.85R FOG
WASECA           N/A     55  52  88 CALM      29.87R FOG
ALBERT LEA     PTCLDY    63  63 100 CALM      29.84R FOG
$$
MNZ078>079-086>088-094>096-201300-
   Southeast Minnesota

CITY           SKY/WX    TMP DP  RH WIND       PRES   REMARKS
ROCHESTER      PTCLDY    60  59  96 CALM      29.87R FOG
6HR MIN TEMP:  60; 6HR MAX TEMP:  65;

RED WING       CLEAR     63  61  94 SE3       29.83R
STANTON        PTCLDY    60  58  94 CALM      29.82R FOG
DODGE CENTER   FOG       61  59  94 CALM      29.86R VSB 1/2
WINONA         FOG       63  63 100 CALM      29.83R VSB<1/4
AUSTIN         CLEAR     57  57 100 CALM      29.85R
PRESTON        FOG       59  59 100 S3        29.87R VSB<1/4
$$
ABBREVIATIONS USED IN REMARKS
   TC - TEMPERATURES IN CELSIUS
  WCI - WIND CHILL INDEX
   HX - HEAT INDEX
  VSB - VISIBILITY
$$



USA.gov is the U.S. government's official web portal to all federal, state and local government web resources and services.